Regional Weather Roundup
Issued by NWS

Home | Current Version | Previous Version | Text Only | Print | Product List | Glossary On
Versions: 1 2 3 4 5 6 7 8 9 10 11 12 13 14 15 16 17 18 19 20 21 22 23 24 25 26 27 28 29 30 31 32 33 34 35 36 37 38 39 40 41 42 43 44 45 46 47 48 49 50
000
ASUS44 KOUN 182100
RWROK

WEATHER ROUNDUP FOR OKLAHOMA
NATIONAL WEATHER SERVICE NORMAN OK
300 PM CST WED JAN 18 2017

NOTE: "FAIR" INDICATES FEW OR NO CLOUDS BELOW 12,000 FEET WITH NO
      SIGNIFICANT WEATHER AND/OR OBSTRUCTIONS TO VISIBILITY.

OKZ001>007-009>012-014-015-017-182200-
NORTHWEST OKLAHOMA AND THE PANHANDLE

CITY           SKY/WX    TMP DP  RH WIND       PRES   REMARKS
GAGE           MOSUNNY   57  44  62 S15       29.93F
GUYMON         MOSUNNY   58  40  51 S15G23    29.86F
ENID/WOODRING  CLOUDY    55  43  62 S9        29.99F
$$

OKZ016-021>023-033>039-044-045-182200-
SOUTHWEST OKLAHOMA

CITY           SKY/WX    TMP DP  RH WIND       PRES   REMARKS
LAWTON/REGL    CLOUDY    50  46  86 SW3       30.03F
LAWTON/FT SILL CLOUDY    49  49 100 S6        30.01F
FREDERICK      CLOUDY    50  47  89 S9        30.00F
CLINTON        CLOUDY    51  44  77 S15       29.99F
HOBART         CLOUDY    49  46  90 S13       30.02F
$$

OKZ018>020-024>031-182200-
CENTRAL OKLAHOMA

CITY           SKY/WX    TMP DP  RH WIND       PRES   REMARKS
OKLAHOMA CITY  CLOUDY    55  42  61 VRB5      30.01F
OKC/WILEY POST CLOUDY    55  42  61 SW8       30.01F
STILLWATER     CLOUDY    55  38  52 S10       30.01F
GUTHRIE        CLOUDY    54  41  61 S6        30.01F
$$

OKZ008-013-054>072-182200-
NORTHEAST OKLAHOMA

CITY           SKY/WX    TMP DP  RH WIND       PRES   REMARKS
TULSA          CLOUDY    53  42  66 S9        30.04F
TULSA/JONES    CLOUDY    53  41  63 SE6       30.04S
PONCA CITY     CLOUDY    55  36  48 S7        30.00F
BARTLESVILLE   CLOUDY    51  39  63 SE5       30.03F
MUSKOGEE       CLOUDY    49  44  83 E7        30.05F
$$

OKZ032-040>043-046>053-073>077-182200-
SOUTH CENTRAL/SOUTHEAST OKLAHOMA

CITY           SKY/WX    TMP DP  RH WIND       PRES   REMARKS
MCALESTER      CLOUDY    50  45  83 CALM      30.04S
$$





USA.gov is the U.S. government's official web portal to all federal, state and local government web resources and services.